Location: Elkol
(41.7238°N, 110.6124°W)
Time: 16:07:36
(UTC+00:00)

BlueWalker 3 - Pass Details

Date: 11 December 2022
Orbit: 499 x 517 km, 53.2° (Epoch: 01 February)

Event Time Altitude Azimuth Distance (km) Brightness Sun altitude
Rises 00:45:59 0° 310° (NW) 2,628 6.0 -9.9°
Reaches altitude 10° 00:48:15 10° 316° (NW) 1,736 5.0 -10.3°
Maximum altitude 00:52:04 48° 32° (NNE) 672 2.2 -10.9°
Enters shadow 00:55:37 11° 107° (ESE) 1,636 4.1 -11.6°
